SCP
0 0 0 0 0 0 0 0 0 0 0 0 0 0 0 0 0 0 0 0 0 0
0 0 0 0 0 0 0 0 0 0 0 0 0 0 0 0 0 0 0 0 0 0
0 0 0 0 0 0 0 0 0 0 0 0 0 0 -0 -0 -0 0 0 0 0 0
0 0 0 0 0 0 0 0 0 0 0 0 0 -0 0 -0 -0 -0 0 0 0 0
0 0 0 0 0 0 0 0 0 0 0 0 0 -0 0 0 0 0 -0 0 0 0
0 0 0 0 0 0 0 0 0 0 0 0 0 0 -0 0 0 0 0 0 0 0
0 0 0 0 0 0 0 0 0 0 0 0 0 0 0 -0 0 0 -0 0 -0 -0
0 0 0 0 0 0 0 0 0 0 0 0 0 0 0 -0 -0 -0 -0 -0 -0 -0
0 0 0 0 0 0 0 0 0 0 0 0 0 0 0 0 -0 -0 -0 -0 -0 0
0 0 0 0 0 0 0 0 0 0 0 0 0 0 0 0 -0 -0 -0 -0 -0 0
0 0 0 0 0 0 0 0 0 0 0 0 0 0 0 0 0 0 0 0 0 0
0 0 0 0 0 0 0 0 0 0 0 0 0 0 0 0 0 -0 0 0 0 0
0 0 0 0 0 0 0 0 0 0 0 0 0 0 0 0 0 0 0 0 0 0
0 0 0 0 0 0 0 0 0 0 0 0 0 0 0 0 0 0 0 0 0 0
Wind_Speed_500mb
26 30 30 35 40 40 39 39 46 49 48 49 50 53 54 55 57 59 63 65 66 69
26 27 27 30 36 42 44 40 46 51 53 51 53 55 58 59 60 59 60 64 68 71
28 30 29 31 36 39 48 55 52 54 56 61 64 67 71 71 66 66 67 73 70 72
27 28 32 35 40 44 42 49 58 66 66 61 67 64 73 76 72 76 80 79 82 82
27 31 35 36 38 47 49 48 44 53 67 62 66 65 66 66 85 88 96 95 98 96
27 31 37 39 39 44 46 48 49 57 59 64 65 68 64 83 92 98 100 101 103 98
29 33 37 40 42 44 46 46 47 57 61 63 62 63 79 94 100 103 100 103 102 96
28 32 40 54 40 45 44 38 46 53 64 64 62 60 79 94 100 106 98 106 109 102
27 29 40 52 55 48 47 38 49 54 67 71 65 67 72 88 95 102 95 106 106 101
27 30 33 44 50 58 48 41 49 57 62 76 68 69 74 85 88 98 95 96 98 96
28 30 32 37 46 54 56 42 49 57 61 66 71 69 77 84 82 91 95 87 91 95
29 31 33 39 56 40 59 46 48 56 62 66 66 70 77 82 82 87 94 90 93 91
31 33 33 37 52 56 46 53 47 67 61 66 64 73 76 77 80 80 89 96 97 88
31 30 35 37 42 45 45 49 56 77 74 73 74 79 75 71 74 73 76 80 90 97
Wind_Direction_500mb
15 21 14 3 14 3 360 1 346 353 350 346 341 338 333 325 318 309 302 297 292 291
360 16 5 8 4 355 351 355 348 355 0 359 352 347 344 337 330 322 314 304 296 287
6 6 6 4 359 355 350 348 349 350 351 354 354 353 351 345 340 335 328 320 312 297
7 2 14 358 353 352 351 348 346 346 346 348 351 349 342 344 342 331 327 324 320 311
1 357 9 349 348 349 350 350 351 341 336 344 344 348 336 333 333 332 332 330 327 319
359 358 350 346 347 350 344 346 350 338 342 338 342 342 343 334 335 334 331 331 327 322
357 352 341 334 352 337 341 352 351 342 342 331 339 339 335 339 338 337 334 333 328 321
351 353 329 332 346 334 345 355 353 342 333 339 336 336 332 339 338 339 336 337 333 326
350 349 335 332 341 344 354 4 356 340 334 335 340 336 337 340 339 341 340 343 337 328
348 346 344 334 335 345 355 4 352 340 337 334 338 337 339 342 341 344 345 348 343 339
346 342 342 328 334 344 353 0 348 339 334 332 335 340 344 343 343 347 351 351 349 352
342 338 340 330 336 351 342 355 345 335 335 335 338 345 348 347 347 349 354 355 356 356
340 336 339 329 334 344 349 348 335 340 343 347 349 351 350 352 351 350 355 359 0 357
337 351 335 340 339 333 339 334 328 345 348 353 355 351 352 355 355 359 354 359 1 2
Wind_Speed_850mb
26 30 30 35 40 40 39 39 46 49 48 49 50 53 54 55 57 59 63 65 66 69
26 27 27 30 36 42 44 40 46 51 53 51 53 55 58 59 60 59 60 64 68 71
28 30 29 31 36 39 48 55 52 54 56 61 64 67 71 71 66 66 67 73 70 72
27 28 32 35 40 44 42 49 58 66 66 61 67 64 73 76 72 76 80 79 82 82
27 31 35 36 38 47 49 48 44 53 67 62 66 65 66 66 85 88 96 95 98 96
27 31 37 39 39 44 46 48 49 57 59 64 65 68 64 83 92 98 100 101 103 98
29 33 37 40 42 44 46 46 47 57 61 63 62 63 79 94 100 103 100 103 102 96
28 32 40 54 40 45 44 38 46 53 64 64 62 60 79 94 100 106 98 106 109 102
27 29 40 52 55 48 47 38 49 54 67 71 65 67 72 88 95 102 95 106 106 101
27 30 33 44 50 58 48 41 49 57 62 76 68 69 74 85 88 98 95 96 98 96
28 30 32 37 46 54 56 42 49 57 61 66 71 69 77 84 82 91 95 87 91 95
29 31 33 39 56 40 59 46 48 56 62 66 66 70 77 82 82 87 94 90 93 91
31 33 33 37 52 56 46 53 47 67 61 66 64 73 76 77 80 80 89 96 97 88
31 30 35 37 42 45 45 49 56 77 74 73 74 79 75 71 74 73 76 80 90 97
Wind_Direction_850mb
15 21 14 3 14 3 360 1 346 353 350 346 341 338 333 325 318 309 302 297 292 291
360 16 5 8 4 355 351 355 348 355 0 359 352 347 344 337 330 322 314 304 296 287
6 6 6 4 359 355 350 348 349 350 351 354 354 353 351 345 340 335 328 320 312 297
7 2 14 358 353 352 351 348 346 346 346 348 351 349 342 344 342 331 327 324 320 311
1 357 9 349 348 349 350 350 351 341 336 344 344 348 336 333 333 332 332 330 327 319
359 358 350 346 347 350 344 346 350 338 342 338 342 342 343 334 335 334 331 331 327 322
357 352 341 334 352 337 341 352 351 342 342 331 339 339 335 339 338 337 334 333 328 321
351 353 329 332 346 334 345 355 353 342 333 339 336 336 332 339 338 339 336 337 333 326
350 349 335 332 341 344 354 4 356 340 334 335 340 336 337 340 339 341 340 343 337 328
348 346 344 334 335 345 355 4 352 340 337 334 338 337 339 342 341 344 345 348 343 339
346 342 342 328 334 344 353 0 348 339 334 332 335 340 344 343 343 347 351 351 349 352
342 338 340 330 336 351 342 355 345 335 335 335 338 345 348 347 347 349 354 355 356 356
340 336 339 329 334 344 349 348 335 340 343 347 349 351 350 352 351 350 355 359 0 357
337 351 335 340 339 333 339 334 328 345 348 353 355 351 352 355 355 359 354 359 1 2